Search for airport 
image banner adimage banner ad
image banner ad

EVOC - Old City Heliport

Located in , Latvia

ICAO - , IATA -

Data provided by Airmate  

General information

Coordinates: N56°57'24" E24°5'45"
Elevation is feet MSL.
 
View others Airports in Riga (city)

Operational data

Open for public use
Current time UTC:
Current local time:
Weather at : EVRA - Riga ( 8 km )
METAR: EVRA 230420Z 20008KT 9999 -SHRA FEW008 SCT023CB 11/11 Q1003 R18/290195 NOSIG
TAF: TAF EVRA 230200Z 2303/2403 20007KT 9999 BKN030 TEMPO 2303/2309 3000 SHRA BKN010CB TEMPO 2309/2324 SCT015CB
View NOTAMs / SUP AIP / TFR affecting this airport [VIEW]
Communications frequencies: [VIEW]

Runways:

Airport contact information

Address: Latvia

Satellite view of EVOC